Lapse_Rate
4.7 5.5 6.5 6.8 6.5 6.5 6.5 6.5 6.5 6.5 6.5 6.7 7.2 6.8 6.6 6.8 6.5 6.5 5.2 5.1 5.7 5.3 5.4 5.7 6.0 6.0 5.9 5.7 5.8 5.8 5.8 5.7 5.8 5.9 5.9 5.9 6.0 6.0 6.1 6.4 6.4 6.3 6.3 6.5 6.4 6.3 6.2 5.7 5.7
5.3 6.6 6.6 6.2 6.5 6.5 6.5 6.5 6.5 6.5 6.8 6.9 7.0 7.1 6.7 6.5 6.9 6.3 5.5 6.5 5.9 5.8 5.4 5.2 5.6 5.8 5.9 5.8 5.8 6.1 5.9 5.8 5.9 6.4 5.9 5.8 6.1 6.1 6.2 6.7 6.6 6.4 6.6 6.6 6.5 6.5 6.5 6.4 6.1
6.9 8.7 6.3 6.5 6.5 6.5 6.5 6.5 6.5 6.7 7.3 7.0 6.9 7.2 7.2 6.9 7.6 7.4 6.3 6.8 6.8 6.3 5.6 5.6 5.6 5.7 5.9 5.8 6.0 5.9 5.7 5.7 5.7 6.0 6.1 6.1 6.2 6.2 6.3 6.4 6.3 6.4 6.5 6.6 6.6 6.6 6.6 6.6 6.6
6.8 6.7 6.3 6.5 6.5 6.5 6.5 6.5 6.5 6.5 7.0 7.4 7.2 6.5 7.5 7.4 8.1 6.5 6.8 6.9 7.5 6.1 5.3 5.5 5.8 6.1 5.9 5.7 5.7 5.7 5.5 5.5 5.6 5.9 6.0 6.1 6.3 6.3 6.6 6.6 6.5 6.5 6.5 6.6 6.7 6.8 6.7 6.6 6.7
7.3 6.4 6.5 6.5 6.5 6.5 6.5 6.6 6.9 6.5 6.7 7.0 7.2 6.6 7.0 7.9 6.8 7.1 6.7 8.0 7.8 5.5 5.2 5.6 5.8 6.1 5.9 5.5 5.6 5.6 5.4 5.6 5.7 5.8 5.9 5.9 6.3 6.4 6.5 6.5 6.4 6.3 6.2 6.3 6.3 6.4 6.4 6.6 6.5
6.2 5.8 6.5 6.5 6.5 6.5 6.5 6.8 6.9 6.7 7.0 7.1 7.0 6.9 6.8 7.3 6.7 6.4 7.2 7.4 7.0 5.8 5.5 5.6 5.8 6.0 5.7 5.5 5.5 5.4 5.4 5.8 5.8 5.8 6.0 6.1 6.0 6.2 6.4 6.4 6.6 6.5 6.4 6.2 6.0 6.0 6.1 6.5 6.5
6.0 6.5 6.5 6.5 6.5 6.5 6.5 7.0 6.6 6.6 6.8 6.8 7.6 6.5 6.9 6.9 6.3 6.2 6.8 8.0 7.8 6.8 5.7 5.2 5.8 6.0 5.7 5.4 5.5 5.4 5.8 5.8 5.7 6.0 6.1 6.2 6.2 6.1 6.4 6.6 6.6 6.5 6.4 6.4 6.2 6.2 6.1 6.2 6.2
6.2 6.5 6.5 6.5 6.5 6.5 6.6 6.8 7.2 6.9 6.7 8.3 7.8 6.6 6.7 6.8 7.0 7.0 7.7 8.1 8.0 6.6 5.8 5.2 5.1 5.1 4.8 5.1 5.3 5.5 5.7 5.7 5.9 5.9 5.9 6.1 6.4 6.4 6.4 6.4 6.6 6.7 6.4 6.3 6.1 6.3 6.2 6.1 6.2
7.9 6.5 6.5 6.5 6.5 6.5 6.2 6.5 7.3 7.8 7.3 7.4 7.7 7.7 8.1 7.7 7.8 8.0 7.4 6.9 7.6 6.9 6.0 5.4 5.1 4.6 4.6 4.5 5.1 5.4 5.6 5.8 5.7 5.7 6.3 6.1 6.2 6.7 6.7 6.1 6.8 6.7 6.6 6.3 6.3 6.1 6.2 6.2 6.6
6.2 6.5 6.5 6.5 6.5 6.5 6.7 6.7 6.9 6.9 7.0 7.1 7.5 8.3 8.4 8.5 8.3 7.3 7.4 7.0 6.8 6.8 6.5 5.9 5.4 4.8 4.7 5.3 4.7 4.8 5.0 5.4 5.3 5.5 4.7 5.1 4.5 5.9 6.7 7.0 6.7 6.4 6.2 6.7 6.6 6.1 6.3 6.1 5.8
6.6 6.5 6.5 6.4 6.9 7.0 6.4 6.6 7.0 6.7 6.5 7.1 7.0 7.8 8.3 8.4 7.6 7.8 7.5 7.2 7.3 7.5 7.6 6.7 5.9 5.7 5.2 4.7 4.0 4.2 4.8 5.1 4.8 3.9 3.9 4.3 3.9 5.2 5.3 5.9 5.5 4.6 4.8 5.3 6.2 5.8 5.6 6.1 6.0
6.5 6.6 6.6 6.8 6.9 6.9 6.5 5.2 6.6 6.9 6.9 7.9 8.0 7.7 8.2 8.0 7.1 7.6 7.7 7.6 7.2 8.0 7.5 7.1 6.3 6.0 5.6 5.0 4.0 4.6 4.9 4.6 4.3 3.6 5.2 4.3 2.8 4.2 3.9 4.8 4.7 3.9 4.3 4.3 5.1 4.5 5.6 5.4 5.5
6.5 6.5 6.6 7.0 7.0 5.6 6.5 6.2 6.4 6.9 7.9 8.0 8.2 8.2 7.9 7.7 7.4 7.8 8.1 7.6 7.7 7.0 7.5 6.9 6.3 5.4 5.7 5.3 4.6 4.8 5.0 5.2 4.9 3.8 3.1 3.5 3.3 2.4 3.9 4.2 3.7 3.7 4.0 3.9 4.8 5.4 5.8 5.9 5.9
6.5 6.6 6.6 5.5 5.4 7.0 6.5 6.5 6.3 7.0 7.9 8.0 8.0 7.7 7.9 7.5 7.4 7.9 7.4 7.4 7.1 7.6 7.6 6.8 6.3 4.8 5.9 6.2 4.8 5.5 6.5 6.6 6.6 5.7 4.8 4.5 5.0 4.3 4.4 3.9 4.3 3.7 4.3 5.0 5.9 6.0 5.9 5.4 5.1
6.5 6.5 6.5 6.6 6.6 6.6 7.0 6.5 6.5 6.9 7.7 7.6 7.7 7.7 7.9 7.7 7.4 7.5 7.3 7.0 7.2 7.0 6.9 6.5 6.3 4.9 5.2 5.7 6.0 6.3 6.0 7.1 5.7 6.4 6.2 5.7 4.7 4.9 4.7 4.4 4.8 5.0 5.3 5.5 6.2 5.9 5.1 4.4 5.2
6.5 6.5 6.5 6.5 6.5 6.5 6.7 6.5 6.5 7.3 7.1 7.0 7.4 7.8 7.8 7.8 7.3 7.7 7.3 7.0 7.2 7.7 5.8 5.9 7.6 5.5 4.2 4.7 5.0 5.8 6.0 6.1 6.5 5.8 6.5 6.4 6.4 6.7 4.1 3.0 3.1 4.2 5.0 5.2 4.7 4.7 5.2 4.6 4.6
6.5 6.5 6.5 6.5 6.5 6.5 6.5 6.5 6.5 6.3 6.8 6.9 7.1 7.3 7.6 7.6 7.8 6.9 6.9 6.7 7.4 7.4 5.2 5.6 6.0 5.1 4.0 3.9 4.1 5.2 5.8 5.3 5.9 6.2 5.4 6.3 6.6 5.9 4.0 3.3 3.7 4.7 4.1 5.0 4.8 4.4 4.7 4.2 4.8
6.5 6.5 6.5 6.5 6.5 6.5 6.5 6.5 6.5 6.7 6.6 6.6 6.9 7.0 7.0 7.3 7.2 7.4 7.1 6.7 7.3 6.0 5.2 5.5 5.0 4.8 4.3 3.9 3.5 3.9 4.4 4.4 5.8 6.0 5.2 5.6 6.0 6.1 3.8 3.7 3.9 3.9 3.7 4.8 5.0 4.9 4.3 3.9 5.0
6.5 6.5 6.5 6.5 6.5 6.5 6.5 6.5 6.5 6.6 6.5 6.0 3.8 6.7 6.8 6.8 7.6 7.9 8.1 8.0 6.9 5.6 4.9 5.5 4.3 4.4 4.8 4.4 4.4 3.6 3.9 4.1 4.5 5.5 5.3 5.5 5.9 6.1 3.9 3.0 3.7 3.6 4.3 4.4 5.0 4.8 4.8 4.6 4.0
6.5 6.5 6.5 6.5 6.5 6.5 6.5 6.5 6.5 6.5 6.5 6.6 6.4 3.2 6.7 6.9 6.7 6.7 6.9 7.0 6.2 5.3 5.3 4.6 4.3 4.2 4.8 5.0 5.1 3.7 3.6 4.1 4.4 5.3 5.2 5.7 6.0 6.1 5.3 4.3 3.9 4.5 4.3 4.7 4.5 4.7 4.4 4.2 3.8
6.5 6.5 6.5 6.5 6.5 6.5 6.5 6.5 6.5 6.5 6.5 7.0 6.6 4.5 6.8 6.9 6.9 6.5 6.7 6.5 6.1 5.1 5.0 4.3 4.3 3.9 4.4 4.6 4.7 4.3 4.5 4.7 4.7 4.6 4.4 5.1 6.1 6.1 6.1 5.4 4.6 4.1 4.6 4.3 4.7 4.9 4.7 4.5 3.9
6.5 6.5 6.5 6.5 6.5 6.5 6.5 6.5 6.5 6.5 6.5 6.5 6.8 5.3 6.7 6.8 6.8 6.6 6.7 6.3 6.2 5.2 4.9 4.5 4.2 4.0 4.4 4.5 5.5 5.9 6.0 6.1 4.1 4.7 4.2 4.4 5.9 5.7 5.9 5.6 4.9 4.3 4.0 4.3 4.3 4.5 4.5 4.0 4.3
6.5 6.5 6.5 6.5 6.5 6.5 6.5 6.5 6.5 6.5 6.5 6.5 6.5 6.4 6.8 6.8 6.7 6.8 6.8 6.8 6.9 5.6 5.0 4.4 4.3 4.5 5.1 5.4 5.9 5.2 5.0 3.8 4.0 4.2 4.5 3.7 4.0 5.3 5.5 5.4 5.1 4.1 3.7 3.9 4.3 4.7 4.4 4.0 3.7
6.5 6.5 6.5 6.5 6.5 6.5 6.5 6.5 6.5 6.5 6.5 6.5 6.5 6.9 6.7 6.9 7.0 7.1 6.9 7.2 6.9 5.6 5.3 4.6 4.3 4.4 4.8 5.1 4.5 5.4 4.3 4.3 4.1 3.8 3.9 3.4 4.2 4.5 4.9 5.4 5.1 4.8 3.7 4.1 4.5 4.7 4.4 3.8 3.9
6.5 6.5 6.5 6.5 6.5 6.5 6.5 6.5 6.5 6.5 6.5 6.5 6.5 6.4 6.4 6.6 6.5 7.0 7.0 7.1 6.7 5.6 5.2 4.4 4.0 4.2 4.6 4.7 5.5 4.1 4.6 4.0 4.0 3.7 4.7 3.6 3.7 4.7 4.6 4.2 4.3 4.3 4.1 4.4 4.6 4.9 4.3 3.5 3.6
6.5 6.5 6.5 6.5 6.5 6.5 6.5 6.5 6.5 6.5 6.2 5.9 6.4 6.8 6.8 6.5 7.3 7.0 7.0 7.0 6.8 6.0 5.1 4.7 3.9 4.0 4.4 4.3 4.2 5.3 4.2 5.3 5.5 3.5 3.5 4.3 4.5 5.1 4.9 4.3 4.7 4.1 3.9 4.0 3.9 4.2 4.0 3.4 2.9
6.5 6.5 6.5 6.5 6.5 6.5 6.5 6.5 6.5 6.5 6.5 6.6 5.7 6.6 6.8 6.2 7.2 6.9 7.1 7.0 6.4 6.1 5.1 4.8 3.9 4.0 4.0 4.4 4.3 3.9 4.7 4.2 5.0 5.1 3.5 3.7 3.8 4.8 4.8 4.7 4.0 4.0 3.8 3.6 3.6 3.2 3.6 3.5 3.0
6.5 6.5 6.5 6.5 6.5 6.5 6.5 6.5 6.5 6.5 6.5 6.5 6.5 6.2 6.2 6.7 6.9 7.1 7.1 7.0 6.3 6.5 5.4 5.0 4.4 3.8 3.6 4.1 4.4 3.5 3.4 4.7 4.1 3.7 3.4 4.1 4.1 4.2 4.3 4.8 4.4 3.9 3.9 3.7 3.6 3.8 3.7 3.7 3.1
6.5 6.5 6.5 6.5 6.5 6.5 6.5 6.5 6.5 6.5 6.5 6.5 6.5 3.9 5.8 6.1 6.7 7.0 7.0 6.8 5.9 6.2 5.7 4.9 4.7 4.0 3.9 4.0 4.5 4.8 4.0 3.5 4.7 3.8 3.4 3.8 4.3 4.2 3.4 3.7 4.2 3.9 3.9 3.6 3.9 3.9 4.0 4.0 3.8
6.5 6.5 6.5 6.5 6.5 6.5 6.5 6.5 6.5 6.5 6.5 6.5 6.4 4.4 4.1 6.0 6.5 6.9 6.9 6.4 6.3 6.3 6.3 5.1 4.7 4.4 4.1 3.9 4.0 4.3 4.5 3.7 3.8 4.4 2.5 3.8 3.6 4.7 3.7 3.6 4.1 4.3 4.5 4.3 3.9 3.5 4.6 3.8 3.6
Wind_Speed
13 12 5 2 2 2 3 6 1 8 9 10 10 9 9 8 3 5 12 9 16 11 12 16 19 20 20 18 18 17 16 16 14 14 16 15 15 15 15 14 13 13 12 12 11 11 10 10 9
13 11 2 2 3 3 3 8 7 10 14 17 15 12 8 5 6 15 12 13 15 15 14 15 21 20 19 19 18 16 17 15 14 15 15 14 13 14 14 12 13 12 12 11 10 9 9 8 7
13 10 1 1 2 3 3 13 11 17 16 11 6 9 6 5 17 16 16 17 18 14 18 18 20 20 20 20 17 17 15 15 12 15 14 13 14 13 14 12 12 12 10 10 9 8 8 6 5
4 1 3 3 6 10 5 8 18 17 12 11 15 10 7 12 14 12 21 15 16 16 20 19 20 20 20 19 17 16 16 14 12 13 12 12 13 13 12 12 12 12 11 10 9 8 7 6 5
1 1 2 1 7 9 10 16 20 15 13 15 10 7 12 5 20 23 19 12 18 15 20 18 20 21 20 19 17 16 14 13 12 11 11 11 11 10 10 11 10 11 11 11 10 8 7 6 5
3 1 2 3 7 11 11 12 21 17 21 20 16 15 6 18 21 17 16 10 17 16 19 18 19 19 19 18 17 15 14 12 11 10 9 10 9 8 8 9 9 9 10 9 8 7 7 6 4
5 3 6 10 10 11 17 16 17 18 17 14 17 11 12 17 18 15 15 12 17 20 17 16 16 19 17 16 15 14 13 11 10 9 7 6 7 7 6 6 7 9 8 8 7 5 5 5 5
5 3 5 7 2 8 12 19 19 23 18 20 15 9 18 20 21 17 10 12 16 16 15 14 14 16 15 15 14 13 11 11 9 8 6 4 3 4 6 6 5 6 6 5 4 3 1 2 2
17 7 7 7 0 6 17 20 17 15 24 9 9 22 20 25 23 14 12 8 11 14 14 15 14 16 17 15 13 13 11 10 9 7 5 2 2 5 5 6 6 6 4 3 2 1 1 2 1
8 3 8 5 6 6 4 7 20 22 21 21 25 21 24 24 20 17 14 12 10 16 15 13 13 13 16 13 14 12 11 12 11 6 9 4 10 7 7 8 6 4 1 3 1 4 2 5 5
11 8 8 4 7 8 9 9 4 23 18 29 29 27 25 22 19 15 15 13 12 16 13 14 13 17 14 12 14 14 13 13 12 17 9 7 4 5 7 4 4 4 1 4 2 8 4 7 10
16 19 9 8 5 5 11 2 8 22 15 25 27 28 25 22 19 17 17 16 17 14 16 16 13 12 12 14 12 13 11 12 10 13 9 6 5 4 2 3 6 2 0 4 7 9 6 10 11
17 15 16 9 6 19 14 7 3 25 27 26 26 25 22 20 19 15 15 15 18 13 17 18 16 12 12 10 11 8 9 11 13 14 15 8 4 5 11 9 5 7 4 6 5 9 5 3 6
15 16 15 11 11 16 14 6 7 22 27 27 27 26 21 21 20 15 14 17 17 15 17 18 16 11 16 8 6 6 8 13 16 15 16 21 4 9 7 6 9 9 9 6 2 2 4 3 5
18 16 17 15 18 8 11 5 13 21 31 29 26 25 24 25 22 19 18 13 15 11 18 19 16 10 11 7 5 2 2 8 10 13 18 20 18 14 6 6 3 4 10 4 3 5 1 2 5
17 17 14 14 15 14 20 14 8 24 27 28 27 25 25 26 26 22 21 17 13 12 20 18 16 11 9 8 5 2 0 1 7 16 17 17 14 9 8 5 3 6 7 8 1 1 2 2 2
11 13 12 9 24 8 28 12 22 18 24 27 26 24 24 25 25 23 24 20 19 15 21 18 16 13 9 8 7 5 3 3 5 12 15 17 14 11 11 7 6 5 3 2 3 3 2 2 3
12 7 10 15 17 16 9 8 23 21 23 26 23 20 19 26 26 26 25 22 17 17 20 18 14 15 11 7 5 4 3 3 8 4 12 17 16 14 10 6 3 1 1 3 2 2 1 3 3
13 17 15 13 15 10 14 11 29 28 19 22 15 19 20 19 21 26 25 20 20 17 17 18 16 15 11 6 7 4 5 3 3 4 12 17 16 14 13 7 5 5 5 4 3 1 3 3 2
19 21 19 14 16 11 10 12 14 33 30 29 20 12 20 20 17 19 18 18 21 18 19 15 15 17 13 9 8 4 4 3 4 4 10 15 15 15 11 8 5 5 3 2 3 3 1 1 2
22 22 18 15 15 17 16 16 10 22 25 24 33 33 25 26 24 19 19 16 18 19 20 17 16 17 15 11 7 4 3 3 3 3 3 6 15 14 11 10 6 4 3 4 4 4 4 3 1
21 19 21 21 13 6 2 3 7 14 23 26 27 23 26 24 23 20 21 19 18 18 18 18 16 15 14 13 12 13 10 8 4 5 4 5 15 13 15 12 10 6 4 5 4 4 3 4 3
16 14 22 23 15 7 18 11 13 10 16 29 28 31 25 23 22 24 25 24 21 19 19 18 18 16 14 15 13 10 8 4 4 3 7 7 6 13 13 14 11 6 4 5 5 4 4 3 3
15 17 15 17 13 14 11 17 17 13 12 26 30 29 28 24 21 24 26 23 20 18 19 18 18 17 16 15 12 14 9 8 5 5 4 4 5 7 8 12 10 9 5 6 5 6 7 5 3
19 11 9 12 13 13 10 7 10 11 13 18 29 30 29 28 29 26 25 23 20 21 22 19 20 20 18 19 17 11 13 10 10 7 7 6 5 6 7 7 7 6 7 7 6 6 6 6 4
22 20 10 15 9 10 8 10 9 12 7 15 23 31 31 27 26 28 28 26 23 23 23 22 22 21 21 19 19 17 10 10 10 8 5 7 6 8 10 8 10 10 11 9 7 5 5 6 5
19 20 12 3 6 3 3 7 13 17 15 9 10 24 32 28 29 29 28 25 25 22 24 25 22 21 20 20 17 17 16 11 13 13 6 5 6 7 11 11 11 11 10 8 8 5 7 6 6
18 12 13 9 9 10 10 12 15 15 20 13 11 19 25 28 31 29 27 25 23 23 22 24 22 22 21 20 17 17 17 16 8 9 9 8 7 8 7 13 14 14 13 11 9 6 5 7 6
12 12 15 6 6 6 6 10 11 22 22 21 12 12 20 24 28 28 26 24 25 24 20 22 21 22 20 19 17 16 15 14 14 9 11 10 8 7 7 11 12 13 13 11 10 7 7 7 6
16 15 15 10 11 5 4 11 6 6 26 22 18 12 16 23 25 27 27 25 23 23 20 22 21 21 20 19 18 17 15 15 15 16 9 13 11 11 7 10 12 11 11 11 10 11 10 9 8
Wind_Direction
158 173 219 134 273 218 234 211 109 165 173 198 122 114 96 48 122 143 140 168 132 131 139 124 124 121 122 119 115 111 112 107 107 104 95 94 93 96 95 97 98 101 102 102 103 107 101 89 82
167 178 188 246 251 319 227 150 207 189 113 111 115 108 59 75 74 123 126 159 134 140 132 124 123 123 125 124 119 121 115 112 104 103 98 96 87 101 92 90 99 95 98 102 105 102 100 96 91
173 184 220 209 305 259 215 175 141 120 117 118 103 57 70 86 118 138 137 149 140 140 125 130 128 129 131 124 125 116 115 109 109 99 99 92 90 90 91 92 91 93 94 97 98 100 99 101 108
204 146 264 234 264 271 256 116 144 120 103 109 113 76 52 121 137 136 152 158 146 123 124 129 134 135 131 128 123 123 118 118 108 104 102 92 93 90 95 98 99 100 100 99 97 99 100 102 110
50 330 351 305 277 250 230 167 126 120 127 104 90 91 117 123 119 139 152 157 125 124 127 132 135 137 131 127 129 127 125 120 117 115 109 103 90 90 96 97 99 100 95 91 90 89 95 103 111
112 297 353 259 291 289 258 129 124 117 101 101 103 110 93 122 132 151 154 153 123 129 128 133 137 135 130 134 133 132 127 124 122 118 112 106 106 97 96 108 109 102 95 92 90 90 95 113 112
109 78 328 311 314 302 139 143 125 124 123 114 132 112 130 129 141 156 166 142 127 131 129 134 141 135 138 136 136 132 128 127 124 117 112 116 118 120 117 113 115 107 99 92 88 86 89 116 126
145 92 183 264 238 302 79 111 114 134 130 134 130 139 149 143 147 161 154 149 136 131 134 142 142 136 140 139 141 138 137 130 129 132 128 123 138 149 147 146 124 108 108 103 99 92 49 90 151
205 169 254 235 168 334 18 97 121 111 132 145 179 140 137 140 154 151 149 160 146 142 144 147 150 153 149 146 150 150 145 146 153 162 145 47 278 214 193 193 153 129 121 134 104 115 274 292 335
181 141 225 238 354 328 300 275 131 113 108 102 113 128 139 151 158 161 164 166 145 151 151 154 157 161 151 156 156 158 169 175 176 142 80 61 337 291 184 158 162 134 136 327 23 301 323 270 224
199 186 236 259 247 301 257 340 297 119 124 140 143 147 154 151 159 165 160 170 161 156 157 161 160 163 167 146 170 179 187 189 172 125 158 102 31 53 39 129 163 3 48 330 286 282 270 268 262
225 216 193 212 21 358 250 180 307 140 151 147 145 154 158 153 164 172 174 167 169 167 165 165 162 170 156 160 180 183 180 186 162 163 166 128 158 192 138 225 196 18 188 266 253 270 270 254 276
239 177 210 223 155 199 237 180 314 130 139 144 145 154 159 158 171 183 171 163 174 179 171 166 166 165 154 167 194 180 190 177 169 181 178 146 163 241 212 199 192 238 235 239 238 234 167 315 19
246 189 191 147 318 188 218 143 140 138 137 145 154 158 166 164 177 172 185 177 188 182 170 163 169 164 157 169 173 197 204 157 171 185 153 141 146 238 198 205 178 202 229 237 162 91 50 342 9
256 259 188 183 176 189 231 164 160 155 150 152 160 164 170 174 181 174 189 196 189 187 158 161 168 161 151 151 142 110 70 153 149 171 154 155 175 192 154 108 113 212 262 208 167 92 101 254 337
255 256 237 192 226 197 192 201 189 162 152 155 166 174 177 178 182 184 187 195 195 183 156 160 167 160 147 144 144 154 309 331 141 150 163 156 158 140 131 101 166 149 294 248 198 82 214 198 210
255 245 230 198 211 189 190 149 183 174 156 164 171 182 183 182 183 186 193 188 194 175 156 161 164 163 152 151 150 176 232 294 282 173 165 166 166 152 130 162 189 211 230 206 174 221 158 230 258
232 232 235 219 236 214 221 178 170 182 179 167 169 184 192 178 189 186 194 194 185 162 161 163 164 165 160 150 140 163 210 268 261 192 180 168 168 167 152 184 224 211 291 132 174 172 133 163 196
235 243 230 243 227 215 211 215 171 187 155 142 173 194 193 195 179 184 190 187 168 164 160 168 153 163 162 157 161 163 195 217 239 227 175 171 172 170 153 178 207 238 213 187 171 126 90 38 59
235 244 251 231 239 224 240 229 166 180 164 160 168 234 198 195 193 177 174 169 169 166 167 163 153 162 168 171 174 159 177 196 203 217 173 175 176 179 165 170 190 199 190 227 203 144 91 144 147
231 234 245 244 243 243 187 221 214 165 162 160 168 197 202 188 190 180 180 175 168 169 172 168 165 162 167 165 162 166 180 193 182 206 189 194 177 174 172 183 189 193 170 191 175 155 159 140 26
223 233 245 253 260 187 234 251 237 176 174 167 171 163 204 194 188 180 183 179 176 175 174 171 167 162 167 162 174 187 202 206 187 182 189 182 177 183 187 185 188 190 183 191 193 170 170 120 159
227 227 238 250 258 256 203 211 231 202 192 175 172 180 192 189 189 183 187 183 185 172 175 176 173 170 169 177 181 185 195 181 184 175 184 183 192 191 188 186 184 191 171 185 195 178 166 157 152
221 222 247 246 248 253 238 206 235 204 186 169 179 180 191 171 193 192 189 185 179 171 172 173 178 178 174 181 178 193 187 187 188 197 191 185 193 196 192 181 177 184 172 188 199 190 177 169 144
218 205 229 236 229 233 230 230 226 210 209 185 185 178 179 181 186 189 183 186 179 171 176 175 178 185 184 186 195 189 195 186 193 199 199 188 176 192 196 172 180 182 180 191 186 181 187 179 175
207 216 209 216 210 232 235 241 250 261 236 224 185 170 179 182 193 182 183 183 184 176 176 179 184 187 190 188 193 201 197 201 204 195 192 199 185 185 196 187 184 185 186 188 191 190 187 180 191
204 217 216 261 211 248 206 252 261 259 269 210 209 177 177 187 192 180 183 182 184 178 178 181 183 189 190 194 193 198 202 204 205 210 192 194 195 189 195 192 180 186 187 190 193 190 190 181 190
214 175 215 213 201 221 234 218 231 234 246 241 212 196 185 177 178 177 180 182 183 184 182 180 182 187 191 194 196 200 203 206 199 192 200 203 209 213 173 198 192 185 188 192 191 194 191 193 192
200 195 202 186 193 183 208 238 226 223 222 231 218 184 192 174 174 174 178 182 181 184 177 181 182 187 191 194 198 200 202 204 207 197 203 209 208 209 187 183 188 188 189 187 193 198 195 199 188
225 212 196 206 228 223 199 258 317 264 209 209 216 207 181 177 172 170 176 181 179 181 181 182 183 185 190 192 193 201 199 199 204 212 197 206 215 214 193 185 186 184 192 194 189 194 199 198 193